Location: Berkeley
(37.8716°N, 122.2727°W)
Time: 22:25:30
(UTC-07:00)

Explorer 7 - Visible Passes

Search period start: 07 June 2026 00:00
Search period end: 17 June 2026 00:00
Orbit: 426 x 534 km, 50.2° (Epoch: 7 June)

Date Brightness Start Highest point End Pass type
(mag) Time Alt. Az. Time Alt. Az. Time Alt. Az.
7 Jun 9.2 01:32:45 10° NNW 01:35:04 17° NNE 01:35:56 16° NE visible
7 Jun 9.2 21:45:35 10° WNW 21:48:14 20° NNW 21:50:52 10° NNE visible
7 Jun 9.8 23:26:48 10° NNW 23:27:30 10° N 23:28:12 10° N visible
8 Jun 9.3 01:04:40 10° NNW 01:06:52 16° NNE 01:07:06 16° NNE visible
8 Jun 9.1 21:17:16 10° WNW 21:20:01 21° NNW 21:22:44 10° NNE visible
8 Jun 9.7 22:58:29 10° NNW 22:59:15 11° N 23:00:02 10° N visible
9 Jun 9.2 00:36:32 10° NNW 00:38:38 15° NNE 00:39:03 15° NNE visible
9 Jun 9.6 22:30:08 10° NNW 22:30:59 11° N 22:31:51 10° N visible
10 Jun 9.2 00:08:23 10° NNW 00:10:23 15° NNE 00:11:13 14° NNE visible
10 Jun 9.6 22:01:44 10° NNW 22:02:42 11° N 22:03:40 10° N visible
10 Jun 9.2 23:40:13 10° NNW 23:42:07 14° NNE 23:43:31 12° NE visible
11 Jun 9.5 01:17:36 10° NW 01:17:40 11° NW 01:17:40 11° NW visible
11 Jun 9.5 21:33:18 10° NNW 21:34:24 11° N 21:35:28 10° NNE visible
11 Jun 9.2 23:12:01 10° NNW 23:13:49 13° NNE 23:15:36 10° NE visible
12 Jun 9.3 00:49:22 10° NW 00:50:02 15° NW 00:50:02 15° NW visible
12 Jun 9.4 21:04:51 10° NNW 21:06:04 11° N 21:07:16 10° NNE visible
12 Jun 9.2 22:43:48 10° NNW 22:45:29 13° NNE 22:47:11 10° NE visible
13 Jun 8.9 00:21:07 10° NW 00:22:25 20° NNW 00:22:25 20° NNW visible
13 Jun 9.2 22:15:32 10° NNW 22:17:08 13° NNE 22:18:44 10° NE visible
13 Jun 8.4 23:52:52 10° NW 23:54:51 27° NNW 23:54:51 27° NNW visible
14 Jun 9.2 21:47:16 10° NNW 21:48:46 12° N 21:50:16 10° NE visible
14 Jun 7.8 23:24:34 10° NW 23:27:17 34° N 23:27:17 34° N visible
15 Jun 9.2 21:18:57 10° NNW 21:20:22 12° N 21:21:47 10° NE visible
15 Jun 7.6 22:56:17 10° NW 22:59:24 33° NNE 22:59:45 32° NE visible
16 Jun 7.8 22:27:56 10° NW 22:31:02 30° NNE 22:32:14 23° ENE visible
